This is the latest recevied weather packets stored in our database for station/object W4GAP. If no packets are shown the sender has not sent any weather packets the latest 10 day(s).
| Time | Temp. | Humidity | Pressure | Rain* | Wind** | Luminosity | Snow |
|---|---|---|---|---|---|---|---|
| 1777655021 | 17.78° C | 56% | 1011.6 hPa | 0 mm | - | 128 W/m² | - |
| 1777654718 | 17.78° C | 55% | 1011.7 hPa | 0 mm | - | 204 W/m² | - |
| 1777654416 | 17.78° C | 58% | 1011.7 hPa | 0 mm | - | 207 W/m² | - |
| 1777654114 | 17.78° C | 60% | 1011.7 hPa | 0 mm | - | 188 W/m² | - |
| 1777653812 | 17.22° C | 56% | 1011.6 hPa | 0 mm | - | 221 W/m² | - |
| 1777653507 | 17.22° C | 57% | 1011.6 hPa | 0 mm | - | 239 W/m² | - |
| 1777653204 | 16.67° C | 58% | 1011.8 hPa | 0 mm | - | 163 W/m² | - |
| 1777652901 | 17.22° C | 59% | 1011.9 hPa | 0 mm | - | 132 W/m² | - |
| 1777652597 | 17.22° C | 56% | 1011.8 hPa | 0 mm | - | 154 W/m² | - |
| 1777652294 | 16.67° C | 57% | 1011.9 hPa | 0 mm | - | 175 W/m² | - |
| 1777651991 | 16.67° C | 58% | 1011.9 hPa | 0 mm | - | 348 W/m² | - |
| 1777651688 | 16.11° C | 61% | 1011.6 hPa | 0 mm | - | 209 W/m² | - |
| 1777651384 | 16.11° C | 60% | 1011.8 hPa | 0 mm | - | 160 W/m² | - |
| 1777651082 | 16.11° C | 61% | 1011.5 hPa | 0 mm | - | 194 W/m² | - |
| 1777650778 | 16.11° C | 59% | 1012.1 hPa | 0 mm | - | 105 W/m² | - |
| 1777650475 | 16.11° C | 60% | 1011.9 hPa | 0 mm | - | 104 W/m² | - |
| 1777650172 | 16.11° C | 61% | 1011.8 hPa | 0 mm | - | 101 W/m² | - |
| 1777649870 | 15.56° C | 59% | 1011.9 hPa | 0 mm | - | 95 W/m² | - |
| 1777649567 | 15.56° C | 60% | 1012 hPa | 0 mm | - | 96 W/m² | - |
| 1777649263 | 15.56° C | 60% | 1012.1 hPa | 0 mm | - | 81 W/m² | - |
| 1777648960 | 15.56° C | 59% | 1011.9 hPa | 0 mm | - | 83 W/m² | - |
| 1777648658 | 15.56° C | 59% | 1012 hPa | 0 mm | - | 83 W/m² | - |
| 1777648354 | 15.56° C | 61% | 1011.6 hPa | 0 mm | - | 77 W/m² | - |
| 1777648050 | 15.56° C | 61% | 1011.7 hPa | 0 mm | - | 81 W/m² | - |
| 1777647746 | 15.56° C | 58% | 1011.9 hPa | 0 mm | - | 75 W/m² | - |
* Rain latest hour (hover to see other rain measurements)
** Current wind speed in m/s (hover to see current wind gust speed)